Погода в Розентале

Россия / Республика Калмыкия     46°04′13″N   42°03′07″E
темп.,
°C
ветер,
м/с
пор.,
м/с
влажн.,
%
обл.,
%
осадки,
мм/ч
давл.,
гПа
погр.,
м
26 июля, пн
пн2600:00+23в33450 0.0 101623
03:00+23вюв344923 0.0 101667
06:00+23в365211 0.0 1017136
09:00+29в693073 0.0 10171101
12:00+33вюв89221 0.0 10162434
15:00+34в79210 0.0 10152780
18:00+32в682472 0.0 10152676
21:00+29всв6122963 0.0 1015539
27 июля, вт
вт2700:00+24вюв41048100 0.0 1015199
03:00+22всв41053100 0.0 1016207
06:00+23в31158100 0.3 1017336
09:00+24в3948100 0.3 1018464
12:00+24юв7952100 0.0 1019790
15:00+22юв91458100 0.1 1019712
18:00+21юв61165100 0.2 1019362
21:00+19в2273100 0.2 101967
28 июля, ср
ср2800:00+18в1173100 0.0 101911
03:00+18ссз1169100 0.0 101911
06:00+19ссз2265100 0.0 101958
09:00+25сз114732 0.0 1019949
12:00+29всв46290 0.0 10172222
15:00+31в35221 0.0 10163013
18:00+29ююв55295 0.0 10161000
21:00+22ю411480 0.0 1017214
29 июля, чт
чт2900:00+19юз33570 0.0 101637
03:00+19юз11535 0.0 101611
06:00+20ююв115049 0.0 101612
09:00+27в223279 0.0 1016640
12:00+32вюв452282 0.0 10142604
15:00+33вюв44215 0.0 10132796
18:00+32в33220 0.0 10132678
21:00+25вюв22340 0.0 101311
30 июля, пт
пт3000:00+22ю33410 0.0 101327
03:00+21ю11470 0.0 101311
06:00+22ююв11440 0.0 101311
09:00+30юв34250 0.0 1013750
12:00+33вюв55190 0.0 10122606
15:00+35вюв45170 0.0 10102922
18:00+33юв55170 0.0 10102078
21:00+25юв33260 0.0 101021